TimeEST,TemperatureF,Dew PointF,Humidity,Sea Level PressureIn,VisibilityMPH,Wind Direction,Wind SpeedMPH,Gust SpeedMPH,PrecipitationIn,Events,Conditions,WindDirDegrees,DateUTC
12:53 AM,70.0,69.1,97,29.95,10.0,NNE,3.5,-,N/A,,Partly Cloudy,30,2013-11-20 05:53:00
1:08 AM,71.6,69.8,94,29.95,10.0,NNE,5.8,-,N/A,,Mostly Cloudy,30,2013-11-20 06:08:00
1:25 AM,69.8,68.0,94,29.96,10.0,NE,6.9,-,N/A,,Scattered Clouds,50,2013-11-20 06:25:00
1:53 AM,69.1,66.9,93,29.95,10.0,NNE,5.8,-,N/A,,Clear,30,2013-11-20 06:53:00
2:53 AM,68.0,64.9,90,29.95,10.0,NE,5.8,-,N/A,,Clear,50,2013-11-20 07:53:00
3:53 AM,66.9,64.9,93,29.96,10.0,Calm,Calm,-,N/A,,Clear,0,2013-11-20 08:53:00
4:53 AM,66.9,64.0,90,29.96,10.0,NE,4.6,-,N/A,,Clear,50,2013-11-20 09:53:00
5:22 AM,66.2,64.4,94,29.97,10.0,NE,5.8,-,N/A,,Scattered Clouds,40,2013-11-20 10:22:00
5:27 AM,66.2,64.4,94,29.97,10.0,NNE,6.9,-,N/A,,Mostly Cloudy,30,2013-11-20 10:27:00
5:53 AM,66.0,64.9,96,29.98,1.8,NE,3.5,-,N/A,,Overcast,40,2013-11-20 10:53:00
6:49 AM,66.2,66.2,100,30.00,0.8,NE,5.8,-,N/A,,Mist,50,2013-11-20 11:49:00
6:53 AM,66.0,66.0,100,29.99,0.5,NE,6.9,-,N/A,Fog,Fog,40,2013-11-20 11:53:00
7:08 AM,66.2,66.2,100,30.01,0.2,NNE,4.6,-,N/A,Fog,Fog,30,2013-11-20 12:08:00
7:53 AM,66.9,66.9,100,30.01,0.5,NE,6.9,-,N/A,Fog,Fog,40,2013-11-20 12:53:00
8:26 AM,68.0,66.2,94,30.03,1.5,NE,4.6,-,N/A,,Overcast,40,2013-11-20 13:26:00
8:42 AM,68.0,66.2,94,30.03,3.0,ENE,4.6,-,N/A,,Overcast,60,2013-11-20 13:42:00
8:53 AM,68.0,68.0,100,30.03,6.0,ENE,3.5,-,N/A,,Overcast,60,2013-11-20 13:53:00
9:37 AM,71.6,68.0,88,30.04,10.0,Calm,Calm,-,N/A,,Scattered Clouds,0,2013-11-20 14:37:00
9:53 AM,75.0,69.1,82,30.03,10.0,East,3.5,-,N/A,,Clear,80,2013-11-20 14:53:00
10:53 AM,80.1,68.0,67,30.03,10.0,ENE,3.5,-,N/A,,Clear,70,2013-11-20 15:53:00
11:53 AM,82.0,66.0,58,30.01,10.0,East,4.6,-,N/A,,Clear,80,2013-11-20 16:53:00
12:53 PM,82.9,64.0,53,29.98,10.0,Variable,3.5,-,N/A,,Clear,0,2013-11-20 17:53:00
1:53 PM,84.9,64.9,51,29.96,10.0,East,4.6,-,N/A,,Clear,90,2013-11-20 18:53:00
2:53 PM,84.9,64.9,51,29.95,10.0,NNW,4.6,-,N/A,,Clear,330,2013-11-20 19:53:00
3:53 PM,86.0,63.0,46,29.96,10.0,Variable,3.5,-,N/A,,Clear,0,2013-11-20 20:53:00
4:53 PM,82.0,68.0,62,29.97,10.0,WNW,4.6,-,N/A,,Clear,300,2013-11-20 21:53:00
5:53 PM,79.0,66.9,66,29.99,10.0,NNW,4.6,-,N/A,,Clear,340,2013-11-20 22:53:00
6:03 PM,78.8,66.2,65,30.00,10.0,NNW,4.6,-,N/A,,Partly Cloudy,340,2013-11-20 23:03:00
6:53 PM,77.0,66.9,71,30.02,10.0,North,3.5,-,N/A,,Partly Cloudy,10,2013-11-20 23:53:00
7:53 PM,75.0,70.0,84,30.04,10.0,NE,6.9,-,N/A,,Partly Cloudy,40,2013-11-21 00:53:00
8:53 PM,73.9,70.0,87,30.05,10.0,ENE,8.1,-,N/A,,Clear,60,2013-11-21 01:53:00
9:53 PM,73.9,69.1,85,30.06,10.0,East,8.1,-,N/A,,Scattered Clouds,80,2013-11-21 02:53:00
10:48 PM,73.4,69.8,88,30.08,10.0,ENE,8.1,-,N/A,,Partly Cloudy,70,2013-11-21 03:48:00
10:53 PM,73.0,70.0,90,30.07,10.0,ENE,9.2,-,N/A,,Partly Cloudy,70,2013-11-21 03:53:00
11:53 PM,73.0,70.0,90,30.06,10.0,ENE,10.4,-,N/A,,Mostly Cloudy,60,2013-11-21 04:53:00